Theta_e
309 309 309 309 309 310 311 312 311 310 310 310 309 309 309 309 309 310 310 311 311 310 311 312 312 312 312 312 312 312 311 310 310 309 312 319 318 316 316 315 317 316 313 317 317 316 315 311 311 312 314 316 316 317 316 317 316 316 331 343 337 337 338 336 339 336 339 341 334 332 333 336 338 334 333 334 334 334 334 334 334 334 333 333 334 335 335 335
308 309 309 309 309 309 309 310 311 311 310 310 309 309 309 309 309 309 309 310 310 311 312 312 312 312 312 312 312 310 310 310 310 309 314 321 316 315 318 316 319 319 315 314 315 316 315 312 311 313 315 316 317 317 315 317 316 321 337 343 337 339 336 331 333 330 333 336 332 332 332 334 336 334 334 333 333 333 334 333 333 334 334 333 334 335 335 334
308 308 309 310 309 309 309 309 310 310 311 311 310 310 310 310 310 310 310 309 310 311 312 312 312 311 312 312 310 310 311 312 312 312 318 321 315 315 318 318 318 320 318 316 315 316 315 313 313 314 316 316 316 315 314 316 314 319 337 348 340 337 334 329 329 328 332 333 331 332 332 333 333 333 333 332 331 332 333 334 333 334 334 333 334 334 334 334
307 308 308 310 310 309 309 309 309 310 311 311 311 311 310 311 311 311 310 310 310 311 311 311 311 311 311 310 310 312 313 315 315 315 320 319 314 315 318 318 318 319 320 318 317 316 314 314 315 316 317 317 316 315 314 316 316 322 337 347 337 332 337 333 330 331 331 331 332 332 332 333 333 333 332 331 333 332 332 334 333 333 333 333 333 333 333 334
308 308 308 310 310 309 310 309 309 309 310 311 311 310 310 310 310 310 310 310 310 309 309 310 311 311 310 310 311 314 315 318 317 317 320 317 312 314 317 318 318 319 317 315 315 314 314 315 316 317 318 316 315 315 314 315 323 331 333 334 330 333 341 335 331 333 331 332 332 331 333 333 332 332 330 331 334 332 330 332 333 332 332 332 332 333 334 333
310 308 309 310 310 310 310 310 310 310 311 311 311 311 311 310 310 310 309 310 309 310 310 310 311 311 310 310 312 316 318 319 319 317 316 317 314 314 317 318 318 317 315 314 314 314 315 315 315 316 316 315 315 318 320 321 329 337 332 329 330 333 337 333 332 333 332 332 331 331 333 332 332 332 330 330 331 331 330 331 333 332 332 331 331 332 334 333
310 310 310 311 310 310 310 310 311 311 312 312 312 312 311 311 311 310 310 310 310 310 311 311 311 310 310 310 313 316 317 318 319 315 312 317 316 313 316 318 318 316 314 314 313 315 316 314 315 315 315 317 321 326 330 327 329 338 336 331 332 332 332 332 332 332 332 332 331 332 332 330 333 334 331 331 331 331 332 332 333 333 332 331 330 331 333 333
309 310 311 311 310 310 310 310 311 312 312 312 311 311 311 311 310 311 311 311 310 310 311 311 311 310 309 311 313 314 315 318 319 314 312 316 315 313 315 317 316 314 313 313 313 315 315 314 315 315 317 321 327 331 332 331 331 337 337 331 331 331 331 332 332 331 332 331 331 332 331 330 332 332 331 331 333 333 333 333 333 332 332 332 331 331 332 333
309 310 310 310 310 309 310 310 311 311 311 311 310 310 310 310 310 311 311 311 310 311 311 310 309 309 310 313 314 314 315 317 318 315 312 313 314 315 316 316 314 314 313 314 314 315 314 314 316 316 318 324 331 330 330 335 335 334 334 330 330 330 330 331 331 331 331 330 331 331 330 330 330 330 331 331 332 332 332 332 333 332 331 331 331 331 332 332
309 309 310 310 309 309 309 310 310 310 310 310 309 310 310 309 309 310 310 310 310 310 310 309 309 309 311 314 316 316 316 317 317 315 312 312 313 315 317 315 313 314 314 314 314 314 315 315 317 316 318 325 332 330 328 335 336 331 330 329 329 329 329 330 331 330 331 330 330 331 330 329 329 331 333 332 331 332 331 331 332 332 331 330 331 331 331 331
311 310 309 310 309 309 309 309 310 310 310 309 309 309 309 309 309 309 309 310 309 309 309 308 308 310 311 314 315 317 318 317 317 315 311 313 315 316 316 314 314 315 314 314 315 315 316 316 316 316 320 327 332 331 329 332 333 330 330 331 329 329 328 329 330 330 331 330 329 330 330 328 329 332 332 331 331 332 332 331 331 331 331 330 330 331 331 330
313 312 310 310 310 310 309 309 310 310 309 308 309 310 309 309 309 309 309 309 309 309 308 308 308 310 312 311 313 318 320 318 318 315 313 315 316 315 315 314 315 317 316 316 316 315 316 316 315 315 321 330 332 333 332 330 331 329 331 334 331 331 330 329 329 329 330 331 329 328 331 332 330 331 331 329 331 332 332 332 331 330 330 330 330 330 331 330
312 312 311 310 310 310 309 308 308 309 308 308 308 309 309 308 307 308 308 308 309 308 309 308 308 311 310 310 313 317 320 318 318 317 316 316 315 314 314 314 315 316 316 317 317 316 316 316 316 315 319 329 331 332 333 329 331 331 332 334 333 334 334 329 329 329 329 330 327 325 334 337 330 330 331 329 330 331 332 331 330 330 330 330 331 331 331 330
313 312 312 311 310 310 309 309 309 308 308 308 308 309 309 308 308 308 308 308 309 309 309 308 310 312 310 311 314 315 317 318 318 317 316 316 316 316 315 315 316 316 316 316 316 316 315 316 315 315 320 330 330 331 333 331 333 335 333 333 334 336 335 330 329 329 330 330 327 328 338 337 329 330 331 329 330 330 330 330 330 330 331 331 331 331 330 330
313 313 313 312 310 310 310 310 310 309 308 307 307 308 308 309 309 310 310 310 310 310 311 312 314 315 315 318 318 317 317 318 318 316 316 317 318 317 317 317 317 317 316 316 316 316 315 314 315 318 324 331 331 331 335 337 337 337 336 336 336 336 334 331 329 329 332 331 327 331 339 335 329 330 330 329 331 330 329 329 330 331 331 331 331 330 330 329
314 313 313 313 312 311 310 309 309 308 308 307 307 308 308 309 309 311 312 313 313 313 316 318 318 318 321 324 320 320 319 318 318 315 316 318 318 318 317 317 318 317 316 316 316 316 315 315 320 325 329 331 331 333 336 338 339 337 338 340 338 336 334 333 331 328 330 332 328 331 335 332 329 329 329 330 330 330 329 328 330 331 330 331 331 330 330 329
313 313 313 312 314 315 312 310 310 309 309 309 308 308 309 310 311 313 314 315 317 317 318 320 319 319 323 321 318 319 319 318 317 315 316 317 317 317 317 317 318 318 317 317 316 316 317 321 326 330 331 331 331 336 338 336 337 336 336 339 335 335 336 336 335 329 328 333 332 331 332 331 330 328 329 330 329 329 329 329 330 330 330 331 331 330 330 329
311 313 313 312 314 316 317 316 315 314 313 312 312 312 312 313 314 314 315 317 319 319 320 320 320 321 320 318 318 318 317 317 316 315 316 317 316 316 316 317 318 319 318 318 317 318 323 326 328 334 335 332 331 341 345 338 339 341 337 337 334 333 335 337 338 332 330 335 335 333 332 330 328 329 330 330 329 329 328 329 330 330 331 330 330 330 330 330
311 311 313 313 313 314 316 317 317 318 317 316 315 315 318 318 318 318 318 318 319 324 326 322 322 324 319 319 320 316 316 317 316 316 317 316 316 316 316 317 319 318 319 323 322 321 326 327 327 335 337 333 332 339 344 340 343 345 340 340 339 336 336 336 337 332 330 336 337 334 333 330 328 329 330 329 329 329 329 329 330 331 331 330 330 330 330 330
312 311 312 314 314 313 313 314 316 318 318 319 317 318 322 322 322 322 321 320 320 323 325 322 322 323 320 321 320 316 317 317 316 316 316 317 317 317 318 318 319 319 321 326 325 321 328 333 333 338 338 335 333 334 337 338 340 341 338 338 338 337 337 334 334 331 329 335 335 330 329 328 328 329 328 329 329 328 328 329 330 330 331 330 330 330 330 330
313 312 311 313 316 317 315 314 316 317 318 319 320 321 321 322 326 325 321 322 322 321 322 320 321 321 320 322 319 317 317 317 317 316 317 318 318 319 319 319 321 322 323 323 324 325 329 333 334 337 337 333 331 332 336 337 338 341 340 338 335 335 335 332 333 332 328 333 333 328 329 328 327 328 327 327 328 328 328 328 330 330 330 331 330 330 330 330
314 313 312 312 314 318 319 319 318 318 319 319 320 321 321 322 324 323 321 322 322 321 322 320 320 320 320 321 319 319 318 317 317 317 318 318 319 320 318 320 322 322 324 325 330 334 331 331 331 330 329 328 329 332 337 339 340 342 339 336 336 336 335 331 331 332 330 334 334 329 331 330 326 327 327 326 328 328 328 329 329 330 330 330 331 330 330 330
314 314 313 313 313 316 320 322 320 319 320 320 321 322 322 323 323 322 322 322 322 321 321 321 320 320 320 321 319 319 318 318 319 318 319 319 319 319 318 320 321 322 326 329 331 331 330 332 329 323 325 329 331 332 336 338 338 340 339 338 337 334 337 336 332 332 332 332 332 331 334 332 328 329 328 326 328 328 328 329 329 330 331 331 331 331 330 329
315 315 314 314 314 315 319 322 321 320 321 321 321 322 322 323 324 323 321 323 323 320 320 320 321 321 321 321 320 320 320 319 320 319 320 321 319 322 322 319 324 327 326 327 327 326 329 329 322 322 326 329 332 333 334 337 335 335 337 341 339 333 337 339 335 334 333 331 331 333 338 336 331 332 331 327 327 328 328 328 328 328 329 331 331 330 330 330
315 315 315 314 315 315 318 321 320 319 320 320 321 321 322 324 325 323 322 328 323 318 321 320 320 323 320 321 321 320 321 320 321 320 320 321 320 326 326 319 327 332 324 324 327 327 329 325 321 325 327 327 334 335 333 335 336 333 334 338 337 334 336 336 334 336 338 336 333 332 339 340 333 331 331 329 328 328 327 327 327 328 328 330 330 331 331 330
315 316 315 315 316 316 317 320 319 319 319 320 320 322 324 325 326 321 325 334 325 318 322 320 322 325 320 322 321 319 322 320 320 321 320 321 320 325 324 318 325 328 321 323 326 328 328 323 322 326 327 328 331 332 331 332 336 335 332 333 335 337 337 334 334 338 340 337 332 331 338 339 336 334 332 330 329 329 327 326 327 327 328 329 329 331 331 330
314 316 316 316 317 316 317 318 318 319 320 319 320 323 324 325 326 321 325 334 326 319 321 321 326 328 320 319 319 321 325 320 322 323 320 322 320 320 322 320 320 320 320 322 322 326 325 323 327 327 327 330 331 333 332 329 335 336 329 330 336 338 335 332 335 339 338 334 331 333 336 335 338 337 331 329 330 329 328 327 327 327 328 328 329 330 330 330
314 316 317 317 318 318 318 318 319 319 320 320 321 322 325 327 324 324 332 331 323 319 320 321 323 321 318 319 319 323 324 322 329 328 319 321 320 318 320 319 319 320 321 321 321 327 324 324 331 329 329 332 333 335 330 327 336 334 327 329 333 333 333 334 338 340 337 334 334 335 332 333 340 337 328 328 330 329 329 328 326 326 328 328 329 329 330 330
314 316 318 318 319 319 318 319 320 321 321 321 322 323 327 327 322 328 336 328 319 319 323 325 323 320 319 319 319 321 320 321 328 326 319 321 320 318 319 318 318 319 319 318 322 326 323 322 328 329 334 334 329 327 325 330 337 329 325 330 330 331 335 337 341 341 338 337 339 336 332 335 341 337 329 329 332 331 329 327 325 325 327 329 329 329 330 330
314 317 319 319 320 319 319 321 321 322 322 321 323 326 325 323 328 337 333 322 321 322 323 325 323 322 322 319 318 320 319 319 323 321 320 322 320 319 320 318 318 320 323 323 323 325 322 321 323 325 331 330 326 324 325 330 331 327 329 330 331 336 339 340 341 338 336 339 339 335 332 334 338 339 332 330 333 332 329 328 326 325 326 328 329 329 329 329
313 317 319 320 320 319 320 321 321 322 322 322 325 326 322 323 335 339 327 320 326 327 323 324 324 324 325 323 322 321 318 318 319 320 323 322 321 321 319 321 324 327 336 333 324 324 325 323 322 322 325 326 327 327 326 327 327 331 337 335 334 338 338 339 340 337 338 340 337 332 329 330 336 341 335 330 331 332 330 329 327 325 326 327 329 329 329 329
314 316 320 320 320 321 322 321 322 322 322 324 324 321 325 330 333 331 325 323 327 326 323 325 326 326 328 327 327 324 320 320 319 320 322 320 321 321 320 327 332 327 330 332 325 325 330 327 322 322 325 326 329 330 328 329 331 332 336 338 338 337 337 341 340 338 340 338 332 330 330 332 335 338 334 330 329 330 329 328 327 325 325 327 329 329 329 329
313 316 319 320 320 321 321 322 322 321 322 323 321 321 332 336 329 326 328 327 324 322 323 324 326 328 328 328 327 324 321 322 321 320 320 319 320 321 321 327 328 322 325 327 325 326 329 328 324 323 327 326 329 336 333 332 333 331 332 339 342 340 340 343 339 333 334 334 331 330 332 336 335 332 334 334 328 326 327 326 327 326 325 326 328 329 329 329
313 317 319 320 322 322 322 322 321 322 323 319 322 331 334 330 326 326 329 330 325 325 326 325 328 332 330 328 327 324 322 322 322 322 323 322 321 323 326 324 321 326 334 328 323 326 325 326 327 325 326 327 328 333 333 332 332 330 332 335 339 342 341 338 336 333 330 332 332 329 332 338 337 330 332 331 323 322 325 327 327 327 326 326 327 328 329 329
313 317 318 321 323 322 322 321 320 323 321 318 329 341 333 325 326 327 330 332 328 326 327 326 330 336 334 331 329 324 321 321 322 325 326 324 323 326 328 324 320 326 332 325 323 327 324 326 331 325 322 326 326 326 328 331 331 329 329 330 332 337 340 332 329 333 333 333 335 332 333 338 335 329 328 325 323 323 324 326 327 327 327 327 328 328 329 329
315 317 319 321 322 322 322 321 321 323 320 323 335 336 329 327 329 329 328 328 326 326 330 330 332 335 333 333 333 327 322 322 322 325 325 323 324 325 325 325 322 322 328 329 328 328 325 326 330 324 321 324 325 325 326 327 331 330 327 331 330 329 337 334 326 328 330 331 335 332 333 338 331 326 329 330 330 328 326 326 326 327 327 327 328 328 328 329
316 317 319 321 321 322 323 321 323 321 318 328 336 329 327 328 328 330 330 326 324 328 335 334 328 328 330 331 334 331 325 325 323 323 325 323 321 322 325 325 320 320 325 328 327 326 327 329 329 325 322 322 322 324 325 322 328 336 333 333 329 322 331 336 329 331 330 330 336 333 333 338 332 329 332 333 335 331 328 329 327 326 327 327 328 328 328 329
315 316 319 322 323 323 323 323 324 321 322 332 334 329 329 327 321 325 328 324 324 331 336 332 325 325 329 330 332 332 328 327 327 325 325 325 321 320 323 323 320 320 319 320 322 324 324 326 329 328 322 321 323 325 328 323 323 332 332 328 327 325 331 332 329 334 330 326 333 334 331 332 332 337 338 333 339 337 329 330 330 327 327 327 328 328 328 328
315 318 321 323 325 323 324 325 322 321 327 333 334 331 328 327 323 322 324 323 326 332 332 329 326 325 328 329 330 332 328 326 329 328 325 324 322 320 321 321 322 321 318 319 325 331 329 325 326 328 322 321 326 328 332 330 323 323 325 324 328 332 334 330 327 330 329 326 331 333 332 332 334 343 342 335 343 340 330 331 331 327 327 327 328 328 327 328
315 319 323 323 325 324 323 324 322 328 333 329 332 333 325 323 324 321 323 324 324 328 329 331 330 326 329 330 327 329 330 329 329 327 326 324 322 321 321 321 323 323 320 319 325 332 331 322 325 332 324 321 327 328 331 335 328 325 326 326 328 327 326 326 326 326 327 331 333 330 330 338 342 341 339 336 341 338 332 332 329 325 327 328 328 328 328 328
315 321 323 321 324 324 322 323 324 331 337 327 326 330 323 322 325 322 323 324 324 325 328 334 332 328 331 331 326 327 332 334 331 326 325 324 323 324 322 321 323 323 322 324 328 333 330 326 332 335 324 325 334 331 328 331 331 332 332 331 331 331 328 327 328 328 327 328 333 329 326 337 344 336 334 336 335 331 328 327 326 325 327 328 328 328 328 328
317 322 322 320 323 323 323 326 322 323 333 329 324 326 324 323 324 323 323 324 326 326 326 332 333 331 333 330 327 330 331 332 331 326 324 324 325 326 322 320 323 321 322 325 324 327 332 333 331 329 328 333 332 323 319 323 328 330 329 330 333 334 334 330 330 333 329 323 327 327 325 338 348 340 334 331 325 322 322 323 323 325 327 328 328 328 328 329
317 319 319 318 321 322 323 328 326 325 330 327 322 323 323 324 324 325 325 325 327 327 326 331 330 328 329 327 328 330 328 328 328 326 326 327 328 327 322 321 323 320 321 325 324 324 332 333 324 328 341 341 330 324 323 322 325 325 325 329 331 332 336 335 335 336 331 326 328 325 325 340 350 340 328 321 319 321 321 322 323 323 326 328 328 329 329 328
317 317 318 319 321 322 324 327 329 331 329 327 326 325 323 324 324 325 328 328 328 329 331 334 328 324 327 327 328 328 326 326 327 325 327 327 327 325 322 323 324 321 321 326 326 323 329 333 327 327 335 334 330 333 333 329 327 327 329 330 332 335 334 331 331 330 327 328 332 327 328 341 347 340 331 325 325 324 321 322 324 323 324 326 327 329 329 328
317 316 318 320 321 321 322 324 329 334 332 329 328 326 326 325 323 324 328 327 326 328 330 330 326 325 328 329 330 331 328 325 325 326 329 329 328 326 323 324 323 323 326 329 325 322 328 335 334 329 327 327 328 332 336 335 329 328 329 327 327 331 330 328 328 326 325 327 328 329 333 341 344 342 342 340 335 330 324 322 323 324 324 325 327 328 329 329
316 320 322 321 321 321 320 320 324 330 334 333 328 324 328 329 324 323 326 326 325 326 326 325 325 327 329 332 335 334 330 326 324 327 330 330 331 327 324 325 323 323 330 329 324 327 331 332 336 339 333 329 333 338 338 333 326 326 328 326 328 331 331 332 329 328 332 329 328 337 337 332 335 340 342 345 341 336 330 323 322 324 324 325 326 327 328 329
320 327 327 324 322 323 324 322 321 323 325 327 327 323 326 330 327 325 325 324 325 325 324 325 326 327 329 333 336 333 330 330 329 328 328 329 331 328 324 325 322 323 328 323 319 327 330 325 329 336 333 332 337 338 331 325 323 329 330 326 330 333 330 329 328 331 334 327 329 346 339 326 333 342 339 341 345 342 332 323 322 325 324 324 326 326 327 328
324 328 325 324 323 324 327 326 323 325 325 324 326 325 328 332 330 329 326 324 325 325 324 326 328 330 331 330 332 332 331 331 330 330 331 329 330 333 331 326 323 322 325 323 320 328 331 323 322 325 330 336 337 331 328 327 326 330 332 329 332 335 331 327 330 334 332 324 331 345 339 331 340 348 342 337 337 335 328 322 323 325 324 325 325 326 327 327
323 325 324 324 324 324 326 324 320 325 330 330 329 328 331 334 330 328 326 326 328 326 325 328 330 330 332 332 333 334 332 330 328 330 334 331 328 332 333 331 327 321 324 328 324 324 326 325 324 323 325 333 336 331 329 329 326 327 331 332 333 336 333 328 331 337 332 326 333 340 338 338 340 341 339 331 325 324 323 323 324 324 324 325 325 326 327 327
322 323 322 325 327 323 323 321 321 328 333 331 330 326 328 335 332 327 326 326 329 329 326 330 332 330 332 335 336 334 332 332 331 330 332 331 330 332 331 331 330 324 326 331 325 323 323 323 328 329 326 332 340 337 334 331 326 325 328 331 331 330 328 326 331 335 330 325 332 335 336 340 336 327 325 323 322 324 325 324 324 324 324 325 325 326 327 327
322 322 322 326 328 324 323 319 321 333 337 331 330 326 327 333 330 326 327 324 325 329 329 330 334 332 330 332 334 331 328 330 330 328 328 328 329 330 328 328 327 326 331 331 326 329 328 324 330 332 326 331 336 335 340 337 325 324 330 333 332 330 330 330 331 333 331 331 334 329 328 339 339 324 319 323 324 324 324 324 324 325 325 325 325 326 326 327
320 321 322 325 327 323 324 323 322 330 332 327 329 328 326 329 326 323 326 324 322 327 327 326 329 331 329 330 332 329 324 325 326 325 325 325 324 325 324 325 324 324 330 330 326 330 330 325 331 330 324 331 335 332 339 338 326 330 338 335 332 334 334 331 329 332 335 336 335 330 328 338 338 326 326 332 330 326 325 325 326 325 325 325 326 326 326 326
Wind_Speed
20 19 17 16 15 13 11 11 13 14 13 12 12 10 10 11 11 11 9 9 9 8 8 8 9 9 9 9 9 9 9 10 11 15 20 23 19 14 14 11 11 12 13 13 9 4 5 7 10 11 11 9 4 4 6 5 5 4 3 4 4 4 4 6 7 6 4 5 6 9 9 5 4 6 10 9 8 10 8 5 4 2 3 5 9 6 9 11
19 19 18 16 15 13 12 11 12 13 13 12 11 10 11 11 11 10 9 9 7 6 7 8 9 8 8 7 6 6 7 8 10 16 19 20 15 15 17 14 13 12 11 12 10 6 5 6 8 8 7 4 2 4 5 7 6 3 3 4 3 5 4 4 7 7 4 6 9 10 8 4 5 7 8 6 6 8 7 6 5 6 5 6 9 9 11 10
19 18 17 15 15 14 12 12 12 12 12 10 9 9 10 10 10 10 9 9 6 6 7 8 9 8 5 4 3 3 4 5 8 13 16 16 11 16 19 17 14 13 11 11 13 9 5 7 6 5 5 2 2 4 4 7 6 2 3 3 4 6 3 2 5 9 5 10 14 10 8 5 5 5 5 6 7 6 5 5 5 6 7 8 10 10 10 9
19 17 15 14 14 14 13 12 12 12 11 10 8 9 9 8 8 9 9 8 8 9 8 7 8 6 3 2 2 3 0 2 6 7 16 15 11 17 18 17 16 14 13 13 14 11 6 8 6 3 3 1 3 4 4 7 6 1 3 3 4 4 3 3 5 9 7 14 17 11 8 6 5 5 7 9 7 3 4 5 5 8 11 10 10 10 10 9
20 17 15 13 12 13 13 13 12 11 11 11 9 9 9 8 8 8 8 8 9 9 8 6 5 4 2 4 5 5 3 3 2 8 17 15 11 17 18 16 17 16 15 15 14 9 8 9 5 2 2 1 2 3 3 9 8 4 2 3 4 5 3 2 7 10 10 16 17 12 9 7 7 7 8 7 4 2 6 7 6 9 12 12 11 10 9 9
20 18 15 12 11 12 13 12 11 10 10 11 10 10 9 8 8 8 8 8 8 6 5 4 2 3 4 7 7 6 5 3 2 8 16 16 12 17 19 16 17 18 15 17 14 10 11 9 4 4 2 1 3 2 3 9 9 4 2 4 6 5 5 6 10 11 15 17 13 10 9 9 10 9 8 7 5 2 6 8 8 10 10 11 12 11 9 8
20 19 15 11 10 12 12 11 10 9 9 11 11 10 9 9 8 8 7 6 6 3 2 2 2 4 6 8 7 5 6 2 5 11 17 17 15 17 20 15 16 18 16 16 15 15 15 9 10 7 1 1 4 2 5 8 7 6 2 3 7 9 9 9 12 12 15 15 11 11 10 7 8 7 7 8 4 1 3 8 11 11 10 9 11 11 10 8
18 17 15 11 9 10 9 9 9 7 8 9 9 8 8 8 8 7 5 3 2 3 3 4 5 7 8 8 6 2 6 4 5 16 19 18 19 17 19 17 16 17 16 17 17 17 13 12 13 8 2 1 5 6 10 11 6 5 4 4 8 10 11 12 14 14 14 16 14 14 10 6 8 8 7 6 4 3 6 10 12 11 10 9 10 10 10 9
15 15 13 11 9 9 8 7 6 6 6 6 7 8 8 7 6 6 2 2 5 7 7 7 7 9 9 8 4 1 4 2 6 17 21 21 20 18 19 17 16 17 20 22 21 18 14 15 14 7 5 1 7 9 9 6 2 4 7 8 10 9 11 14 13 13 15 15 15 13 9 7 9 7 6 5 4 4 8 11 11 10 10 10 10 10 10 10
14 14 13 11 10 9 6 5 6 8 7 7 9 9 9 8 6 5 4 6 8 9 9 10 9 10 10 7 4 2 4 5 7 15 21 23 20 17 16 15 17 22 25 25 22 21 15 13 9 4 6 2 6 4 1 3 8 14 16 14 12 10 9 11 11 13 14 10 11 12 4 4 5 2 3 4 4 5 8 10 10 9 8 8 8 9 9 9
16 13 13 12 10 9 6 5 6 8 8 9 10 10 9 8 8 8 9 9 9 10 10 11 10 9 8 6 5 3 5 7 8 13 20 23 19 17 16 14 20 27 27 24 23 23 15 9 6 4 4 3 5 6 6 11 21 23 22 15 10 10 8 9 11 11 10 5 10 15 6 3 5 2 3 5 5 4 7 10 9 8 8 8 7 8 10 9
19 15 13 12 11 9 6 5 5 7 9 10 10 10 10 10 11 11 12 11 11 11 10 10 9 8 6 5 7 5 7 9 9 14 21 22 19 19 16 15 24 28 24 22 21 20 14 10 9 9 5 4 5 6 8 17 23 20 17 9 4 7 5 4 6 6 5 5 12 13 4 3 4 3 4 6 5 4 6 8 8 8 8 8 7 8 10 10
21 17 14 12 9 7 6 6 7 10 10 11 11 11 11 11 12 12 12 12 12 11 10 9 7 5 3 4 6 7 8 11 14 17 21 22 21 20 16 14 22 25 21 18 15 13 13 11 11 12 6 2 4 7 12 16 16 9 6 5 3 5 1 3 3 3 4 8 10 5 1 3 2 4 5 4 5 5 7 7 7 9 10 9 7 8 9 11
20 19 18 15 9 5 4 5 7 10 12 11 11 12 12 12 12 12 11 10 10 9 8 7 4 3 3 2 5 6 5 9 17 21 23 24 21 19 16 13 15 17 16 14 12 11 11 9 8 10 7 4 12 16 13 8 7 4 3 3 3 3 2 5 4 6 5 8 6 3 1 4 2 3 3 3 5 6 7 7 8 9 10 10 8 8 10 12
18 16 18 20 14 6 4 4 4 7 10 11 12 13 13 12 10 10 9 8 7 7 6 3 2 1 4 1 4 5 7 9 19 27 27 27 22 19 20 16 14 15 14 13 12 12 11 10 8 4 3 14 20 15 5 3 3 3 3 1 2 3 2 4 4 8 4 5 5 2 2 3 3 4 4 5 6 6 7 7 9 10 10 10 9 10 11 13
19 14 13 18 20 14 9 8 7 7 10 12 14 14 13 10 7 7 7 7 6 5 4 2 3 5 3 1 5 4 8 11 21 29 28 27 22 17 17 15 12 10 11 11 12 12 10 7 5 9 14 15 12 7 4 4 3 3 3 2 1 3 2 2 3 6 4 4 1 2 2 2 3 4 5 6 7 8 7 8 10 10 10 12 12 12 11 12
20 15 10 11 18 20 17 15 11 9 10 10 11 11 10 8 6 6 8 9 8 5 4 4 6 6 3 4 5 5 9 12 22 28 25 24 18 12 11 12 9 5 7 9 10 7 4 5 10 10 8 5 3 5 5 2 2 3 2 2 2 3 3 2 2 3 5 5 1 3 2 3 4 3 7 8 9 9 8 10 11 11 10 12 14 13 13 12
21 18 11 5 7 13 16 16 13 9 9 8 7 6 5 4 4 5 7 9 10 8 6 6 6 5 4 5 6 7 11 14 20 24 23 21 17 12 9 9 7 5 5 3 4 6 7 6 8 4 2 2 1 4 4 2 3 3 2 2 1 1 2 3 2 4 5 4 2 3 1 3 2 3 8 8 9 10 11 14 13 12 12 12 14 14 14 13
21 19 14 5 1 1 3 6 9 8 8 6 3 2 3 4 2 4 7 7 6 6 4 2 2 4 3 4 8 10 12 14 19 19 19 18 13 8 3 1 3 5 4 2 4 7 7 5 4 3 2 3 5 4 5 6 6 6 5 4 4 2 2 3 3 4 7 5 3 4 1 2 4 5 8 8 9 11 12 14 13 13 13 14 15 14 15 15
21 20 18 10 2 3 4 4 6 9 8 7 7 5 4 4 2 4 8 4 1 2 1 1 2 5 5 7 11 11 10 13 15 12 14 12 6 3 2 5 4 5 4 1 3 5 5 4 2 4 6 8 8 5 6 5 6 7 5 4 4 4 2 4 2 3 7 4 1 2 3 3 6 6 6 9 9 9 11 13 13 13 14 15 16 16 17 16
21 21 21 17 10 3 3 4 5 8 9 9 11 8 6 7 3 2 7 4 2 3 2 4 5 6 7 9 12 12 11 12 9 6 7 7 3 0 4 5 3 5 3 1 1 2 3 3 5 6 8 8 6 5 7 7 6 6 5 4 3 2 2 2 2 3 3 2 0 3 4 4 6 5 4 8 8 7 12 14 14 14 15 16 17 18 18 17
20 20 21 21 17 11 6 5 5 7 6 6 9 9 9 8 4 5 7 4 6 7 2 2 5 7 8 10 12 12 11 10 7 5 5 6 3 1 4 5 4 3 3 3 4 3 2 2 7 6 6 5 5 5 7 7 6 5 4 5 2 2 1 2 2 3 2 2 1 3 3 3 5 5 4 7 8 8 14 17 17 17 17 17 18 19 20 20
18 19 20 20 20 17 12 8 7 8 7 6 6 8 9 6 4 7 8 4 4 11 11 8 8 10 13 13 13 9 6 6 5 6 5 6 4 5 4 5 5 5 4 4 2 2 1 4 6 4 8 7 5 4 7 6 4 4 4 5 2 3 3 1 1 2 3 2 3 4 2 2 2 2 3 8 10 8 11 16 18 18 18 19 20 20 21 22
16 18 19 20 20 19 16 11 9 12 11 9 9 10 10 8 5 5 5 2 2 10 15 16 15 14 13 11 11 5 4 5 4 8 9 7 7 6 3 4 6 4 4 1 3 4 4 5 1 5 7 7 6 5 6 5 1 0 3 5 3 4 4 3 2 2 3 4 2 4 3 4 2 3 4 6 8 8 9 13 17 19 19 19 19 20 22 23
14 16 17 18 19 18 17 11 9 14 13 12 13 14 13 11 7 4 3 1 2 10 15 15 13 9 9 6 8 6 6 7 9 12 10 7 10 4 3 3 4 1 5 5 5 4 7 7 3 5 4 5 6 4 5 6 3 2 3 5 6 6 5 5 6 4 4 3 1 3 2 4 2 3 5 3 5 7 9 11 16 20 21 20 20 21 23 24
12 14 15 17 18 18 17 11 10 15 12 11 13 12 11 10 8 7 5 4 3 9 12 11 9 4 6 3 7 9 6 6 8 12 7 5 12 9 4 1 3 5 5 5 3 2 5 4 2 5 5 6 5 2 3 6 6 1 4 6 8 9 8 8 7 4 2 2 2 3 3 3 4 3 7 5 5 8 8 9 15 20 22 23 24 24 24 25
11 12 13 15 16 17 16 13 14 15 9 9 11 8 6 6 5 5 4 5 3 4 5 5 4 6 6 3 3 6 4 4 8 11 9 8 14 13 7 3 3 5 5 3 1 3 3 2 4 5 5 5 4 2 4 7 7 2 4 6 9 10 9 8 6 4 2 2 2 3 3 1 4 5 5 6 7 7 8 9 12 18 23 26 27 27 26 27
9 10 12 14 15 15 16 16 16 14 11 11 11 8 5 1 1 1 4 5 1 3 2 0 2 7 8 7 3 3 10 12 5 7 12 12 15 13 8 8 6 5 3 2 3 5 2 1 3 6 5 4 3 4 8 10 5 3 1 7 8 8 7 6 6 3 1 2 3 3 2 1 4 5 2 4 7 7 10 12 12 17 24 27 28 28 28 28
8 8 10 12 13 14 16 16 15 14 13 12 11 9 4 4 4 1 5 3 2 1 1 1 3 5 8 7 3 3 11 14 7 12 16 12 14 13 8 9 7 4 2 2 4 5 1 3 7 8 5 4 2 1 7 9 4 2 6 10 8 7 6 5 5 3 2 3 3 5 4 2 4 4 1 3 5 9 12 11 12 20 25 27 29 30 29 29
7 7 8 10 12 14 14 15 14 14 13 12 12 8 2 5 4 4 4 1 1 2 3 3 2 2 3 2 2 4 5 8 11 14 11 7 11 10 6 7 4 3 2 1 3 4 3 1 5 5 4 5 5 5 4 7 9 8 8 9 7 5 4 4 3 3 3 2 5 6 6 4 2 4 3 4 5 8 10 8 10 17 23 27 29 30 31 30
7 6 7 8 11 12 13 14 13 13 12 11 12 7 3 3 3 6 2 1 1 2 2 2 2 2 3 4 2 4 4 4 7 9 6 4 5 3 1 3 0 3 3 3 1 4 6 3 1 2 7 10 9 7 6 6 8 7 5 5 5 4 4 3 3 3 2 3 5 3 4 4 1 5 5 7 6 5 8 10 11 15 22 28 29 31 32 31
8 6 6 7 9 9 10 12 12 11 11 12 12 4 2 4 4 3 1 2 1 3 2 2 2 3 3 2 1 2 3 2 3 5 5 2 3 3 1 2 2 3 4 2 0 5 5 1 1 1 6 9 9 6 5 5 4 5 5 5 5 3 3 2 2 1 1 4 3 1 3 2 4 7 7 9 10 8 10 14 17 20 24 29 30 32 32 31
9 6 6 7 8 7 7 10 10 10 11 13 11 3 5 6 2 1 2 1 1 2 1 2 3 3 3 2 2 2 1 2 1 1 1 2 1 4 2 1 4 3 1 3 0 3 3 4 2 3 1 2 6 7 3 1 1 5 5 4 4 3 3 1 2 2 2 3 2 1 2 1 4 6 7 10 12 15 18 20 23 26 30 33 33 33 32 31
9 7 7 6 5 5 5 8 9 8 11 11 7 5 7 5 2 2 2 2 2 2 2 2 3 4 4 3 2 3 3 1 0 2 1 2 1 3 3 1 2 4 3 2 1 2 1 4 1 4 2 3 4 4 6 5 3 3 3 5 4 4 3 2 3 2 2 2 2 2 1 2 2 3 5 8 10 13 18 20 21 24 28 31 31 30 30 31
9 8 7 5 3 3 4 6 7 8 10 8 7 6 5 2 3 1 2 3 1 2 3 3 3 5 5 3 3 2 3 1 1 3 2 2 3 3 2 2 2 3 4 3 1 1 2 3 6 4 3 4 4 3 6 7 4 2 2 4 1 3 4 1 1 4 3 1 1 1 2 4 4 4 4 4 6 4 10 15 15 17 21 24 26 28 30 32
9 8 7 6 4 3 3 5 5 7 7 5 7 5 2 3 3 3 3 2 1 1 2 4 5 5 4 4 3 4 3 1 2 3 1 1 1 2 2 3 4 3 4 4 2 1 2 3 5 3 1 3 6 5 4 4 3 2 1 2 4 4 6 4 0 0 3 1 1 1 3 4 3 3 4 5 5 4 6 10 13 16 20 23 27 30 31 33
8 7 7 6 5 3 2 4 3 5 5 6 7 1 2 2 3 4 2 1 1 1 3 3 2 2 1 2 3 5 4 3 3 2 1 1 1 2 2 3 3 3 4 4 1 2 3 2 6 1 1 1 6 6 5 4 5 4 2 4 3 2 4 4 1 3 3 0 3 2 3 5 3 2 4 5 5 2 3 6 9 14 20 24 27 31 33 34
7 7 6 4 3 2 1 3 2 2 3 6 4 1 1 1 2 3 2 2 1 2 5 2 0 1 1 0 2 5 4 3 3 2 0 1 1 2 2 2 1 1 2 5 3 1 3 1 6 2 1 1 2 6 4 4 4 4 4 3 3 2 0 1 1 0 1 1 3 3 4 3 2 3 4 1 3 4 4 5 7 11 18 23 26 29 31 32
6 6 3 1 3 3 2 3 2 3 5 5 1 1 1 2 3 3 3 2 2 4 3 1 1 1 1 2 1 3 2 1 2 1 1 1 0 1 0 1 2 5 2 5 4 1 3 2 4 5 1 1 3 4 1 3 3 3 3 2 2 2 3 2 1 2 1 0 2 3 4 3 5 5 4 6 7 7 7 7 7 12 20 25 27 28 30 32
4 3 1 2 3 3 0 3 3 5 5 3 3 2 1 2 2 1 2 0 1 3 1 3 2 1 1 1 0 2 2 1 0 0 1 0 0 2 2 2 1 5 3 3 3 2 3 3 2 5 2 3 1 2 5 6 3 1 2 0 1 1 2 1 1 1 2 2 2 1 3 5 6 4 6 7 8 8 11 10 9 14 23 27 28 30 32 34
2 0 0 2 3 4 0 3 4 4 3 2 2 1 1 1 1 2 3 2 2 2 2 4 3 1 1 1 1 1 2 2 1 1 0 1 1 0 2 1 2 5 3 4 2 2 2 3 2 2 1 2 4 5 5 8 7 5 4 4 3 3 3 1 2 3 1 2 3 2 2 6 6 3 5 6 5 7 11 12 11 17 25 27 28 31 33 35
3 0 1 2 2 3 1 3 2 1 3 3 2 1 1 0 1 1 2 3 3 2 2 3 2 2 2 1 0 0 1 1 1 1 0 2 2 3 2 4 7 5 1 2 2 2 3 4 2 1 3 5 7 4 2 5 5 5 3 3 4 3 4 4 2 3 1 2 1 3 0 6 6 3 4 6 5 8 13 14 14 18 25 28 29 30 32 34
3 1 1 1 1 2 2 3 3 2 1 2 1 1 0 1 1 1 2 3 2 1 2 2 1 1 1 2 1 1 1 0 1 1 1 2 3 4 3 8 11 4 3 2 1 1 2 3 2 2 4 4 6 4 3 3 4 5 1 2 4 3 3 5 4 3 3 2 1 2 1 6 6 3 4 7 6 7 12 16 16 17 21 25 27 29 31 32
2 2 1 2 1 2 3 2 1 1 2 1 2 1 1 2 2 2 1 1 1 1 2 0 1 1 1 1 1 1 1 1 1 2 1 2 3 5 7 12 11 2 2 1 2 3 1 0 2 2 4 6 6 5 5 4 1 2 2 1 4 4 5 4 2 3 1 3 5 4 3 6 6 4 4 5 2 2 7 14 17 16 19 23 26 28 30 31
2 2 1 3 1 3 2 2 4 2 0 1 2 2 2 3 2 3 3 1 1 2 2 1 1 1 0 1 3 2 1 2 1 2 2 2 4 5 10 16 13 5 4 3 5 6 3 2 3 4 2 2 1 2 3 3 2 1 2 1 3 5 7 4 2 3 1 3 4 4 4 6 7 6 6 6 4 1 4 9 14 16 18 22 25 28 29 31
3 2 1 2 3 4 5 3 2 3 2 3 2 1 2 2 1 3 4 2 1 3 2 1 1 2 2 4 4 3 3 0 0 1 1 3 3 4 11 15 10 10 13 5 4 5 4 1 3 6 6 6 6 6 5 3 2 3 3 2 3 4 6 5 3 2 4 3 2 5 6 4 8 7 5 6 4 3 4 6 10 14 17 20 24 27 29 31
4 1 0 1 3 5 7 6 6 3 2 3 2 1 1 0 1 2 3 2 1 3 3 2 2 2 1 3 3 0 3 3 2 1 1 3 2 5 11 8 2 12 18 9 2 2 4 1 1 5 5 7 8 7 4 1 2 5 4 3 4 4 6 6 4 5 5 5 4 7 5 4 7 7 6 7 6 5 5 7 12 15 17 19 21 24 26 28
3 2 2 3 0 1 3 5 6 4 3 2 2 0 1 2 1 0 1 2 2 3 2 2 3 2 1 2 3 1 2 3 3 2 1 3 3 4 8 4 1 10 15 9 6 3 6 1 1 3 4 6 4 3 3 2 2 3 5 6 5 6 7 7 6 6 7 6 6 6 7 6 7 7 7 8 8 7 6 7 12 14 15 18 19 22 25 27
6 5 4 5 3 1 1 3 2 5 4 3 2 1 1 2 1 2 1 2 2 3 2 1 2 3 2 2 4 2 0 1 1 3 2 1 3 2 4 3 1 8 12 6 5 3 3 1 1 1 4 7 5 4 2 3 2 3 4 6 5 6 9 8 4 4 6 6 5 5 6 8 8 7 8 7 6 7 5 4 8 11 14 17 20 23 25 27
7 6 3 4 4 4 5 3 2 4 3 3 2 1 1 3 2 2 1 2 0 2 2 2 4 2 0 3 5 2 3 6 3 3 3 1 2 1 0 2 3 5 8 3 2 4 2 1 1 3 3 7 6 6 3 1 3 4 5 4 2 4 5 4 2 4 3 4 3 6 3 7 7 6 7 4 3 6 6 5 8 10 13 17 20 23 25 27
9 8 5 4 3 6 6 4 3 3 2 2 1 1 0 1 2 1 1 0 1 2 1 3 4 1 2 2 3 1 4 6 6 8 8 5 5 5 3 2 2 4 6 2 2 4 3 1 1 5 3 6 5 7 7 4 3 2 7 6 3 4 3 3 3 5 5 4 3 3 1 6 6 4 3 2 4 6 7 7 8 10 12 16 20 23 25 27
9 8 6 5 3 5 5 2 3 3 2 1 1 1 1 2 2 1 1 2 2 2 1 2 5 3 3 1 2 4 7 8 10 14 15 14 14 13 11 10 7 3 3 1 2 2 2 2 1 3 2 5 5 5 5 4 6 4 6 5 6 5 3 3 2 3 6 6 5 4 6 6 4 3 2 2 2 5 9 10 10 11 13 16 19 21 23 25
Wind_Direction
320 318 314 309 304 301 300 298 298 299 296 291 286 280 278 274 270 271 271 278 284 292 296 288 286 281 281 282 275 261 249 247 233 231 224 205 197 188 183 169 150 164 172 179 181 172 179 162 160 162 162 167 167 187 179 158 123 96 87 91 136 174 191 183 178 184 163 167 174 166 161 139 131 132 122 106 99 99 95 99 79 132 180 197 194 191 177 175
322 319 317 315 309 305 304 300 297 298 297 293 291 290 288 286 281 275 271 271 272 287 289 284 279 272 280 283 273 258 257 255 244 243 220 197 200 195 184 171 144 142 162 183 187 186 181 155 160 169 167 168 158 162 167 166 140 98 94 106 171 196 188 179 173 177 160 153 154 156 165 144 130 137 136 112 89 106 100 96 96 102 122 163 165 163 174 178
324 321 319 319 314 312 310 305 301 298 297 296 295 295 293 296 297 290 287 281 269 263 265 273 270 264 273 276 264 239 260 268 266 251 205 190 210 200 186 177 159 139 145 172 185 188 164 135 145 171 177 212 191 160 147 156 152 104 100 115 222 208 165 59 165 182 183 158 147 146 163 134 116 134 136 123 110 118 123 122 128 132 142 157 156 161 171 170
328 323 321 321 319 320 315 307 302 298 297 295 293 288 282 282 284 281 278 276 269 255 246 259 271 267 249 220 178 165 231 324 276 226 178 183 208 197 184 181 178 161 159 169 171 174 159 134 133 167 189 247 200 179 169 163 159 90 108 158 209 171 107 25 154 169 167 156 148 140 143 128 114 123 127 126 117 121 167 164 171 169 166 163 162 165 165 162
332 327 324 323 325 325 320 313 304 299 297 293 289 283 278 267 263 267 262 259 260 256 247 243 260 259 196 167 162 146 104 65 222 183 172 182 197 189 171 161 171 169 171 171 167 170 164 151 146 202 220 227 181 176 182 166 147 78 71 139 133 131 101 67 132 140 142 141 138 133 134 137 118 94 105 114 105 170 189 182 183 180 175 170 170 167 165 167
339 333 329 328 329 329 325 322 310 302 301 299 298 293 289 276 264 259 251 254 251 252 257 238 231 219 163 162 165 147 145 102 99 157 170 178 178 177 166 154 162 166 167 168 174 174 163 172 227 244 236 202 173 144 151 166 153 101 48 69 79 114 119 120 125 128 139 132 124 134 135 132 115 86 81 85 78 158 189 182 180 184 182 176 177 174 172 176
346 339 336 335 334 334 330 328 320 312 315 317 316 311 315 308 294 274 253 257 244 219 229 212 162 162 147 162 169 173 204 338 46 136 151 165 166 168 172 168 165 165 162 166 176 167 164 204 247 239 244 162 164 121 114 131 127 110 99 52 80 103 110 125 126 124 133 124 119 135 131 118 112 103 82 75 81 106 161 177 182 184 186 182 180 179 182 186
351 346 343 344 341 340 335 332 333 338 342 341 339 339 343 334 322 306 280 265 214 155 150 145 131 143 141 161 165 222 238 348 65 140 142 155 165 172 177 170 163 165 159 158 171 171 182 231 240 227 259 182 157 139 121 104 70 87 116 106 96 97 105 122 123 122 120 114 121 121 104 86 99 109 90 76 104 118 139 165 180 181 179 185 188 187 191 195
353 354 353 353 354 352 349 352 7 26 24 22 20 17 12 3 355 340 329 104 120 122 128 134 134 141 143 157 149 275 223 53 102 144 147 153 161 176 178 166 155 158 158 157 173 190 212 232 227 231 284 234 135 137 129 103 54 111 117 111 105 95 105 119 116 116 116 115 123 107 77 83 99 99 81 81 107 113 135 149 164 171 171 184 194 189 191 202
352 358 2 3 8 7 13 33 53 62 60 55 43 36 32 32 43 48 86 107 118 125 132 139 137 144 152 153 137 140 158 126 122 145 155 154 155 168 168 164 154 154 164 171 189 203 211 223 225 275 294 240 120 113 20 117 133 120 107 94 96 98 99 116 115 115 117 116 124 116 94 75 89 105 94 102 115 118 126 127 144 163 172 183 185 174 179 200
353 352 360 4 10 14 27 48 65 74 75 71 61 58 62 69 82 91 104 111 121 129 137 142 141 150 158 160 168 165 129 132 137 143 154 153 152 159 158 164 160 160 173 184 197 203 205 220 234 316 307 194 118 60 47 117 126 118 109 86 67 83 87 109 118 123 115 104 128 124 118 50 57 77 116 131 140 144 136 127 141 155 164 174 172 162 169 182
3 354 354 358 3 10 24 46 80 92 85 82 78 78 85 96 103 108 113 117 125 131 137 142 148 156 160 195 195 152 108 131 148 144 149 148 146 154 162 163 161 169 181 184 193 205 217 234 247 287 310 160 133 65 86 119 120 114 108 93 43 57 70 114 120 135 117 129 140 119 88 3 29 90 123 139 148 167 150 135 142 145 155 170 170 159 161 168
13 8 3 2 3 11 34 61 86 96 93 88 85 88 91 93 99 106 110 118 126 131 137 144 157 166 178 213 177 138 113 133 150 152 150 148 146 156 171 169 166 177 184 185 199 215 228 246 256 273 288 124 119 118 127 119 109 104 81 92 105 51 22 216 161 152 131 148 148 99 332 287 2 119 127 146 159 172 150 136 149 147 153 166 168 161 157 158
22 23 17 12 11 15 53 74 81 92 97 96 95 99 97 94 98 102 107 116 122 128 134 146 161 188 226 198 142 163 163 140 157 164 156 150 151 159 167 169 176 187 193 203 223 232 237 254 267 275 281 139 125 122 119 96 79 99 54 55 99 89 227 241 192 152 132 173 184 32 157 241 276 142 143 177 175 177 154 142 163 158 153 160 163 162 159 154
27 33 29 24 24 24 41 50 56 88 102 107 111 115 114 114 112 107 109 111 118 129 123 122 99 12 285 275 109 177 190 163 168 168 154 141 145 158 166 173 185 197 211 225 240 248 249 255 259 257 152 130 127 119 91 34 30 68 95 346 6 102 203 283 206 172 144 192 225 21 111 266 268 168 176 195 184 182 165 157 170 166 157 159 160 159 158 155
26 33 38 32 36 42 40 38 42 69 94 107 116 122 124 122 114 100 94 98 112 124 110 88 64 42 332 41 88 142 171 167 166 165 156 148 153 170 181 188 191 202 227 243 256 257 254 250 205 141 127 125 124 117 79 63 12 359 97 178 258 113 147 286 217 197 153 133 198 11 141 244 278 184 178 192 190 180 167 163 171 171 165 163 163 164 165 162
26 30 35 34 45 49 45 50 57 68 86 97 108 119 122 114 94 74 73 79 85 81 73 52 42 46 46 71 79 128 151 160 168 171 172 165 151 137 163 181 178 206 244 252 258 244 202 163 143 132 120 114 115 106 88 44 311 305 61 115 211 141 148 199 258 205 139 112 78 40 113 215 278 199 174 188 191 181 169 169 171 170 170 170 168 169 174 174
24 29 33 37 55 53 49 51 52 64 80 87 101 111 107 87 61 62 73 76 67 49 42 39 24 34 63 54 62 123 141 152 169 175 178 173 151 122 136 162 171 232 267 235 200 163 147 137 130 126 55 64 110 99 106 203 191 187 168 129 180 141 151 186 238 193 136 87 106 102 82 240 262 167 173 186 188 182 175 172 172 170 172 175 174 172 176 179
19 26 31 35 290 22 51 33 21 31 53 69 74 41 16 10 33 55 47 59 66 46 39 29 15 56 90 63 76 117 142 151 160 167 174 175 171 172 184 275 256 289 324 84 135 154 142 113 106 127 126 166 204 169 157 184 160 159 167 142 146 155 212 217 240 197 144 95 106 137 141 202 189 177 178 183 185 183 178 175 175 174 175 177 177 176 177 180
11 19 26 32 9 266 257 306 358 5 6 17 2 346 357 0 88 59 12 358 146 79 44 308 9 53 56 67 93 125 145 145 148 156 170 169 165 192 335 327 309 9 21 90 166 181 135 113 174 186 185 196 200 168 134 134 121 126 127 115 144 151 230 237 236 188 146 114 54 141 141 179 188 190 186 182 182 179 180 182 181 179 178 179 180 178 178 181
5 11 16 22 23 1 292 311 9 7 353 2 1 351 352 5 50 28 337 312 341 0 302 305 347 21 39 73 103 129 131 126 133 128 151 164 150 92 10 1 17 37 344 303 121 188 114 120 223 216 204 192 170 135 110 99 87 98 119 118 132 163 234 254 155 163 138 101 97 131 142 198 202 202 198 177 175 186 190 187 186 186 184 183 181 180 180 181
1 4 9 12 13 14 6 347 13 21 8 3 356 350 359 16 34 346 333 318 351 9 36 341 356 28 66 98 112 125 125 115 125 124 136 173 166 15 15 37 46 19 323 11 23 352 44 247 244 216 183 133 106 117 100 93 88 82 106 116 131 203 171 15 62 117 60 57 187 143 145 231 226 218 222 188 181 199 204 199 192 189 189 189 185 183 182 182
359 360 3 4 5 7 10 9 13 18 13 1 350 355 10 17 333 316 319 295 352 28 50 50 38 65 78 94 109 113 115 103 124 141 137 159 131 15 16 52 22 355 12 45 11 327 33 260 260 179 153 123 100 121 96 85 87 86 116 123 180 208 140 57 28 82 47 64 156 140 112 304 244 209 243 215 200 204 213 211 203 197 195 194 190 189 189 187
358 356 357 358 359 1 5 10 13 11 10 11 8 3 7 7 341 306 300 246 111 28 36 45 51 80 86 94 116 93 59 70 85 124 122 116 86 22 343 48 34 351 331 274 210 238 250 255 255 104 140 137 116 141 132 118 112 260 159 151 178 187 161 162 152 100 46 36 112 114 46 322 216 187 240 221 205 214 219 212 210 208 205 201 197 198 197 194
357 354 353 353 354 356 0 7 9 6 11 19 12 3 4 3 360 3 357 98 110 8 21 35 39 94 115 107 127 105 90 70 65 112 125 108 108 110 289 13 57 255 267 235 207 248 263 250 186 105 122 138 127 163 174 153 151 301 226 183 157 149 138 123 118 96 44 2 281 104 45 299 273 213 230 204 191 218 217 207 211 213 210 210 208 206 204 203
354 351 349 348 350 351 355 1 358 358 12 22 12 6 5 360 13 50 61 62 45 1 6 15 16 146 161 70 110 112 94 59 82 132 141 121 148 174 227 228 182 211 224 203 189 236 255 260 168 144 149 144 133 173 198 151 126 325 247 170 134 127 129 133 130 108 87 243 271 84 123 269 313 260 223 192 192 218 217 211 215 214 212 212 213 211 208 207
348 349 345 343 346 346 345 347 345 352 9 11 5 9 0 352 16 60 69 45 34 332 334 12 37 177 203 330 102 117 108 119 131 159 168 172 194 204 214 225 215 216 199 148 17 260 222 24 67 121 128 133 144 203 203 148 126 241 251 143 127 128 135 141 124 104 162 197 339 35 118 224 301 267 232 179 187 220 223 222 222 216 214 214 214 214 212 210
343 345 341 336 341 341 340 340 341 352 359 349 353 357 343 288 216 12 79 67 320 289 314 148 178 208 242 290 282 120 127 137 138 195 194 213 225 208 205 232 223 223 206 132 293 265 201 112 136 132 110 141 194 214 172 136 111 267 234 114 120 117 121 123 101 93 119 81 335 303 134 155 268 278 308 161 188 225 223 221 220 214 215 215 214 214 213 212
335 339 333 331 336 337 338 340 345 354 351 345 352 347 341 157 175 43 78 90 274 281 91 222 227 233 263 286 260 145 131 137 160 203 204 227 227 204 219 245 227 228 240 175 234 249 270 213 173 137 131 183 211 216 159 131 109 168 107 91 85 78 84 85 88 98 52 40 274 242 174 155 271 277 37 140 202 229 222 218 215 213 215 215 214 213 213 213
322 329 326 326 332 336 337 341 351 355 350 351 352 347 37 134 136 55 50 27 290 182 187 210 239 266 291 5 138 193 175 162 173 188 205 238 220 210 247 256 222 187 249 347 218 246 315 195 157 124 143 159 107 64 79 108 123 130 101 84 75 51 46 51 57 78 56 337 270 236 188 151 289 273 199 176 218 218 208 209 211 212 213 214 215 213 212 213
305 314 317 320 329 335 336 343 354 356 354 356 348 346 77 95 79 77 78 256 31 301 296 258 266 8 51 86 138 198 200 202 185 175 193 256 245 229 264 259 11 67 3 356 254 300 350 50 81 78 119 117 96 65 54 83 110 106 89 95 85 21 11 29 3 32 73 259 276 254 181 133 215 265 225 217 247 223 193 200 200 202 207 210 212 212 213 214
295 299 304 313 323 329 334 342 350 354 354 354 345 333 119 41 33 82 246 292 347 308 326 296 280 16 38 81 159 199 167 176 196 171 176 208 263 246 169 190 175 36 341 296 303 341 350 6 321 65 116 114 103 82 52 23 38 82 98 94 78 28 15 23 328 344 188 243 275 187 147 135 238 252 247 237 246 233 206 205 201 196 199 205 208 210 212 213
285 285 293 305 315 323 339 345 345 354 356 349 344 353 95 63 40 228 279 315 294 272 277 284 299 354 10 50 22 315 91 127 162 161 154 88 309 271 304 146 156 114 296 220 345 0 329 319 18 99 141 151 122 113 127 269 86 132 133 110 107 99 61 339 271 291 270 262 291 198 177 287 275 266 250 232 236 230 217 211 206 200 199 202 205 206 208 211
278 278 286 292 308 323 346 349 343 354 357 358 10 47 71 67 229 236 300 268 263 317 334 314 323 1 26 48 341 327 50 55 14 85 77 85 125 264 309 324 146 110 123 163 169 139 135 313 229 152 215 196 144 136 151 139 123 162 154 118 132 146 139 226 233 212 251 266 321 332 187 201 231 254 240 237 259 248 221 211 207 204 202 201 201 201 203 207
273 274 277 273 287 323 349 350 348 355 358 22 57 59 78 127 241 216 254 255 273 319 317 342 29 34 14 353 312 343 63 1 341 60 47 95 156 217 253 246 205 130 122 140 202 140 92 255 245 257 247 177 159 159 135 106 94 195 145 102 138 182 143 97 186 174 181 189 311 295 221 218 223 252 281 288 298 262 195 193 190 193 197 194 193 196 201 205
269 272 268 257 261 295 345 347 352 360 359 56 74 51 123 189 208 177 203 224 142 258 325 1 40 54 358 327 331 345 14 16 25 46 14 46 174 226 250 244 220 164 138 144 187 155 75 277 279 314 317 174 168 167 133 114 137 146 122 185 228 172 122 103 169 99 75 105 270 270 262 294 310 296 327 8 23 68 141 167 172 177 183 185 191 196 199 203
262 270 268 263 257 255 330 345 357 4 11 73 89 96 217 200 189 184 190 145 159 102 76 41 22 62 352 321 324 326 349 12 15 27 335 333 255 230 284 279 236 188 168 147 153 177 139 278 296 323 82 197 166 136 63 67 119 117 189 213 199 117 91 105 126 9 42 177 284 309 267 297 345 313 323 17 52 81 138 156 165 171 176 184 193 197 200 203
255 267 270 264 224 192 9 9 19 26 50 70 81 200 209 185 207 212 194 143 125 63 73 87 11 113 165 195 305 316 349 12 1 23 22 330 255 213 289 288 290 17 142 136 94 65 128 347 300 280 122 331 99 97 44 359 69 112 174 174 114 120 268 79 113 32 43 318 295 309 299 276 208 229 284 294 174 185 185 172 169 175 182 189 195 197 199 201
257 266 263 209 175 171 49 25 37 72 75 76 96 226 202 215 240 227 193 168 105 80 77 187 188 57 138 154 241 302 357 24 346 38 131 22 2 221 56 159 317 354 57 135 131 128 107 95 295 288 214 46 37 80 177 270 352 59 97 72 60 130 165 153 133 170 161 2 284 312 332 289 231 221 217 220 206 184 179 187 190 190 191 194 195 195 197 199
262 263 188 134 170 183 37 19 53 78 81 105 177 205 235 230 235 172 133 163 106 89 122 198 159 60 224 179 296 298 7 68 223 56 165 241 29 290 290 155 305 335 12 90 121 125 73 97 238 292 329 100 100 219 190 186 187 102 95 209 290 76 139 164 35 87 127 143 184 315 323 275 254 210 194 223 218 186 184 192 198 198 197 198 198 196 197 200
234 262 141 125 155 184 187 40 63 80 90 131 176 214 254 211 151 88 92 90 90 89 130 158 144 137 180 65 18 280 338 20 1 31 309 244 121 277 283 83 12 327 5 43 67 136 113 126 168 294 340 156 234 243 190 176 176 159 165 199 189 145 130 122 318 315 76 122 167 155 270 273 261 200 205 230 216 199 200 193 193 200 200 201 201 199 201 203
188 124 49 84 138 187 117 49 39 62 110 137 170 215 246 1 54 85 87 73 67 61 73 105 123 121 141 148 348 239 14 5 327 72 105 239 190 191 231 17 356 320 142 56 310 182 130 114 114 272 237 221 250 260 163 169 156 130 159 188 146 134 125 130 227 264 108 82 119 119 212 274 262 216 221 241 231 226 218 204 199 202 202 203 203 203 204 207
191 145 108 36 47 166 106 43 359 3 76 182 209 219 267 34 52 59 44 45 46 37 43 66 171 124 159 199 183 123 138 191 231 235 269 235 235 255 291 356 355 346 133 109 284 150 74 79 90 293 298 304 298 320 54 83 101 109 166 163 139 157 140 148 184 179 137 157 140 98 283 274 274 265 263 268 256 233 222 214 209 204 202 203 204 205 206 208
185 163 142 24 358 175 126 103 130 15 290 298 18 31 33 48 57 44 42 38 34 96 97 83 199 186 230 193 125 160 171 126 250 297 310 199 271 313 338 355 357 6 158 272 212 157 141 114 99 50 342 342 341 351 2 344 353 167 235 205 152 131 101 115 141 90 115 209 153 131 243 257 272 302 320 317 314 206 214 215 213 210 206 204 204 206 207 207
157 183 167 37 63 171 125 132 157 146 157 41 42 25 30 39 41 63 95 113 62 121 126 356 85 125 348 40 36 0 53 113 238 311 340 291 295 320 342 345 345 341 330 298 189 157 149 167 127 119 178 228 243 270 264 267 277 264 270 228 167 130 121 144 133 91 232 233 146 150 222 260 292 319 337 345 4 349 218 210 212 214 211 208 205 204 205 206
137 180 249 33 65 97 90 82 95 107 131 110 74 12 45 62 11 48 74 70 27 81 78 17 77 90 39 49 45 357 351 18 288 357 336 309 292 297 326 332 336 358 6 21 152 137 112 148 154 142 167 191 195 222 228 173 155 242 257 232 188 143 127 124 103 136 188 175 181 215 207 257 299 304 308 311 309 272 238 205 207 211 211 212 208 205 205 206
129 142 307 68 41 61 71 49 37 64 157 136 112 296 348 17 298 13 44 54 58 70 62 27 36 62 51 68 85 343 320 338 0 33 291 299 270 283 319 325 345 11 14 22 17 74 102 322 256 152 186 213 205 221 233 153 204 221 224 232 206 159 128 126 158 204 167 131 266 256 189 196 268 265 260 269 263 247 231 207 208 210 210 210 206 203 203 204
109 107 80 85 47 79 74 23 17 63 102 98 112 220 6 28 22 10 21 54 65 67 68 25 8 8 216 122 105 123 341 1 359 342 301 322 314 314 337 340 101 24 22 15 351 66 124 347 328 152 257 261 237 253 241 210 248 219 207 223 203 163 163 178 203 202 158 162 241 237 174 196 248 250 238 241 235 234 233 213 213 214 211 207 203 200 200 202
90 101 84 79 97 131 46 336 7 88 74 40 56 66 77 109 132 246 261 53 28 2 58 111 293 305 265 148 118 117 135 129 323 305 254 299 319 328 351 329 323 26 28 18 353 48 115 341 331 120 314 302 309 320 260 201 255 262 233 228 203 178 187 197 205 182 177 214 227 172 181 231 247 233 234 248 245 240 246 228 215 214 209 205 202 201 202 203
78 86 81 89 84 35 12 2 72 94 49 16 56 66 105 152 184 273 284 90 101 304 47 142 233 270 245 143 118 128 197 173 176 252 214 184 324 285 343 275 261 3 18 30 350 2 36 317 266 85 11 307 321 354 352 198 210 250 281 290 204 181 198 205 184 164 194 250 206 136 175 262 263 240 241 259 230 212 219 215 208 210 209 205 204 204 206 207
64 65 69 94 67 4 3 15 60 84 48 13 79 114 28 198 211 253 286 2 149 192 184 178 190 127 47 78 104 206 235 199 203 236 237 237 257 245 230 233 235 348 358 11 349 355 36 36 338 60 40 289 312 360 340 350 73 310 304 303 227 192 200 209 193 178 182 186 151 128 222 261 265 264 250 223 177 188 209 208 198 208 213 210 209 211 212 213
47 49 59 88 68 5 6 11 36 77 121 293 262 203 258 284 293 20 342 328 37 81 57 154 144 98 31 331 250 285 292 281 272 275 274 267 263 259 255 256 255 273 308 6 14 329 76 92 30 63 49 273 296 345 331 10 41 338 282 245 214 217 229 239 242 210 187 156 140 186 226 237 261 274 228 212 197 212 225 216 203 211 217 217 221 222 221 221